CZ-6A DEB, 55534

Orbit data source: Space-Track

CZ-6A DEB, 55534 is space debris in SSO originally from a launch on Fri, 11 Nov 2022 UTC launched from the Taiyaun Space Center, China (TSC). Debris objects in space refer to the collection of defunct objects orbiting the Earth. Examples of debris include non-operational satellites, rocket bodies, and fragments generated from explosions, collisions, or faulty payload assembly.

Loading next visibility...
Identifier
55534, 2022-151YG
Orbit
SSO
Country
Flag of CNCN / PRC
Related business
Manufacturer
SAST
Mission
Spacecraft
Bus & Motor
Unknown
Mass
Unknown
Launch date (UTC)
2022-11-11 (4 years ago)
Launch vehicle
Unknown
Launch site
Taiyaun Space Center, China (TSC)
Object type
Payload
Rocket body
Debris
Shape & HBR
Unknown shape, 0.1 m
Radar Cross Section
Medium (>0.1 m² and <1 m²)

Expand to show TLE details & history
Last TLE update: 2 days ago

TLE from 2 days ago
0 CZ-6A DEB
1 55534U 22151YG  26171.20041140  .00035700  00000-0  29435-2 0  9992
2 55534  98.6528 256.9557 0045059 219.1990 140.5963 14.98133670186527
Epoch: 2026-06-20T04:48Z
TLE epoch observation values (Epoch: 2026-06-20T04:48:35.544Z)
Latitude
-0.00011°
Longitude
-83.61083°
Altitude
599.948 km
Speed
7.546 km/s
True Right ascension
17h 07m 49s
True Declination
0° 00' 00"
Sunlit
Object was in full shadow at epoch
Visualization orbit readout
Latitude
Unknown
Longitude
Unknown
Altitude
Unknown
Speed
Unknown
Apparent Right ascension
Unknown
Apparent Declination
Unknown
Sunlit
N/A
Visualization observer readout
Local Sidereal Time
21:29:42
Azimuth
Unknown
Elevation
Unknown
Doppler factor
Unknown
Orbital elements
Apogee altitude
601.022 km
Perigee altitude
538.409 km
Semi-major axis
6,947.852 km
Eccentricity
0.00451
Inclination
98.6528°
RAAN
256.9557°
Arg. of periapsis
219.199°
True anomaly
140.92264°
Mean anomaly
140.5963°
Eccentric anomaly
140.75961°
Mean motion
3.74772 °/min
Orbital period
96.06 mins
BSTAR
0.0029435
Loading maneuver chart data...
Computing Atmospheric mass density...
Loading historical data...
Loading historical data...
Loading historical data...
Loading historical data...
Loading historical data...
Loading historical data...
Loading historical data...

Documentation

Showing up to 5 results
|